TimeCDT,TemperatureF,Dew PointF,Humidity,Sea Level PressureIn,VisibilityMPH,Wind Direction,Wind SpeedMPH,Gust SpeedMPH,PrecipitationIn,Events,Conditions,WindDirDegrees,DateUTC
12:52 AM,37.0,25.0,62,29.80,-9999.0,WNW,18.4,28.8,N/A,,Unknown,290,2012-10-09 05:52:00
1:52 AM,36.0,24.1,62,29.80,-9999.0,WNW,18.4,28.8,N/A,,Unknown,290,2012-10-09 06:52:00
2:52 AM,36.0,25.0,64,29.80,-9999.0,WNW,26.5,33.4,N/A,,Unknown,300,2012-10-09 07:52:00
3:52 AM,36.0,27.0,70,29.82,-9999.0,WNW,25.3,33.4,N/A,,Unknown,300,2012-10-09 08:52:00
4:52 AM,35.1,30.0,82,29.86,-9999.0,NW,28.8,35.7,N/A,,Unknown,320,2012-10-09 09:52:00
5:52 AM,34.0,32.0,92,29.89,-9999.0,NW,23.0,33.4,N/A,,Unknown,320,2012-10-09 10:52:00
6:52 AM,34.0,32.0,92,29.94,-9999.0,NNW,18.4,27.6,0.01,,Unknown,330,2012-10-09 11:52:00
7:52 AM,34.0,32.0,92,29.98,-9999.0,NW,17.3,-,N/A,,Unknown,320,2012-10-09 12:52:00
8:52 AM,35.1,30.9,85,30.01,-9999.0,NNW,17.3,24.2,N/A,,Unknown,330,2012-10-09 13:52:00
9:52 AM,36.0,30.9,82,30.03,-9999.0,NW,17.3,23.0,N/A,,Unknown,320,2012-10-09 14:52:00
10:52 AM,37.9,30.9,76,30.04,-9999.0,NW,17.3,-,N/A,,Unknown,320,2012-10-09 15:52:00
11:52 AM,39.0,30.0,70,30.05,-9999.0,NNW,17.3,23.0,N/A,,Unknown,330,2012-10-09 16:52:00
12:52 PM,39.0,30.0,70,30.06,-9999.0,NW,13.8,-,N/A,,Unknown,310,2012-10-09 17:52:00
1:52 PM,35.1,32.0,89,30.06,-9999.0,NNW,9.2,20.7,N/A,,Unknown,340,2012-10-09 18:52:00
2:52 PM,37.0,34.0,89,30.06,-9999.0,North,15.0,-,N/A,,Unknown,350,2012-10-09 19:52:00
3:52 PM,39.0,32.0,76,30.06,-9999.0,NW,12.7,-,N/A,,Unknown,320,2012-10-09 20:52:00
4:52 PM,41.0,32.0,70,30.06,-9999.0,NNW,15.0,21.9,N/A,,Unknown,330,2012-10-09 21:52:00
5:52 PM,39.9,30.0,68,30.07,-9999.0,NW,13.8,23.0,N/A,,Unknown,320,2012-10-09 22:52:00
6:52 PM,36.0,28.9,76,30.08,-9999.0,NNW,5.8,-,N/A,,Unknown,330,2012-10-09 23:52:00
7:52 PM,35.1,28.9,78,30.09,-9999.0,WNW,3.5,-,N/A,,Unknown,300,2012-10-10 00:52:00
8:52 PM,33.1,28.0,82,30.09,-9999.0,West,4.6,-,N/A,,Unknown,280,2012-10-10 01:52:00
9:52 PM,35.1,28.9,78,30.09,-9999.0,West,5.8,-,N/A,,Unknown,280,2012-10-10 02:52:00
10:52 PM,35.1,28.0,76,30.09,-9999.0,WNW,5.8,-,N/A,,Unknown,290,2012-10-10 03:52:00
11:52 PM,36.0,27.0,70,30.08,-9999.0,WNW,8.1,-,N/A,,Unknown,300,2012-10-10 04:52:00